Location: Les Chemineaux
(47.3024°N, 1.5104°E)
Time: 17:13:36
(UTC+00:00)

Helios 1A - Pass Details

Date: 19 May 2025
Orbit: 544 x 570 km, 98.3° (Epoch: 03 June)

Event Time Altitude Azimuth Distance (km) Brightness Sun altitude
Rises 20:42:30 0° 12° (NNE) 2,786 6.9 -10.6°
Reaches altitude 10° 20:44:40 10° 10° (N) 1,882 6.1 -10.8°
Maximum altitude 20:48:43 72° 287° (WNW) 600 3.1 -11.3°
Drops below altitude 10° 20:52:43 10° 203° (SSW) 1,854 5.3 -11.8°
Sets 20:54:50 0° 201° (SSW) 2,741 6.1 -12.0°
